Temp
66 67 66 66 65 65 63 63 63 63 62 61 61 61 61 62 62 62 62 62 62 62 62 61 62 62 63 62 61 62 60 59 59 59 59 59 58 59 61 60 58 58
65 66 66 66 65 64 63 64 63 63 62 62 61 61 62 62 62 62 61 61 62 60 59 61 62 62 62 61 60 59 59 60 59 62 59 58 58 60 60 59 58 58
64 65 65 65 65 64 64 64 63 63 63 62 62 62 63 62 62 62 61 60 60 61 62 62 62 62 62 62 61 61 61 58 60 59 59 58 58 60 57 58 58 58
64 65 65 65 64 64 65 64 62 63 62 62 63 63 64 64 62 61 62 64 61 62 62 61 61 62 62 61 60 59 60 60 59 58 58 58 59 59 59 58 58 59
63 64 64 64 64 64 64 64 63 63 63 63 63 62 63 62 61 61 62 61 60 59 60 61 61 61 62 62 61 59 60 59 59 59 58 58 59 61 60 60 58 58
64 65 65 65 65 65 64 63 64 64 63 63 63 63 62 62 61 62 61 60 60 61 62 61 61 62 62 61 60 61 61 62 59 58 58 58 60 60 64 60 58 59
64 64 64 65 65 64 64 64 64 65 65 65 64 63 62 61 62 62 61 61 60 60 60 60 60 61 61 60 60 60 60 59 59 60 61 59 59 59 61 59 58 59
64 65 66 66 64 63 65 65 65 64 64 65 64 62 63 62 63 62 61 62 62 61 60 60 61 61 60 62 62 59 59 62 61 60 59 58 59 60 59 62 59 58
63 63 63 64 65 63 64 65 65 65 65 64 63 62 62 63 64 63 63 63 63 62 62 61 61 62 60 62 61 61 60 61 61 59 59 59 59 59 62 60 59 58
60 59 59 59 61 63 63 64 65 65 64 63 62 62 63 61 63 64 63 62 62 62 62 61 61 60 61 62 62 61 61 60 60 59 58 58 58 58 59 59 57 57
60 59 60 61 60 60 63 63 63 63 62 62 60 61 62 61 62 63 62 62 61 61 60 60 60 61 61 61 61 60 59 59 58 58 58 57 58 58 59 57 58 58
59 58 60 61 60 59 59 61 63 62 62 63 62 63 62 62 62 62 63 61 59 58 58 59 60 60 61 60 59 59 58 58 58 57 58 58 58 58 56 57 56 57
58 58 58 59 58 57 58 58 61 62 63 63 62 64 63 61 61 60 59 59 58 60 59 59 59 59 60 60 60 59 58 57 57 56 57 56 57 57 57 58 58 57
57 58 58 58 58 58 59 59 59 61 60 60 60 60 60 60 59 59 58 59 59 58 59 59 58 58 58 59 59 58 57 57 56 56 56 56 55 56 56 57 57 58
57 57 58 58 58 58 58 59 59 58 58 59 59 59 60 60 60 59 58 58 57 58 57 57 58 57 55 55 58 57 57 57 57 56 56 55 54 55 56 56 57 57
57 58 59 58 58 58 57 58 57 58 57 57 58 58 58 59 59 59 58 58 57 56 56 57 56 53 50 48 52 58 57 57 55 55 56 55 55 55 55 56 56 55
57 57 58 58 58 57 59 59 59 58 57 57 57 58 58 59 59 58 58 57 57 56 56 56 54 50 43 41 42 48 58 56 56 55 55 55 55 55 55 56 55 57
56 57 57 57 58 58 58 58 57 57 57 57 57 58 58 59 59 58 58 57 56 56 55 55 52 45 40 41 42 44 51 57 57 57 57 56 55 55 56 56 57 58
57 57 57 57 58 58 57 57 57 57 57 57 57 57 58 58 58 58 57 56 57 56 55 54 50 40 40 41 41 41 41 49 57 57 58 57 56 56 56 56 57 58
57 58 57 57 57 58 58 57 57 56 56 55 55 55 56 56 56 56 55 55 55 55 55 53 49 41 39 40 40 39 38 42 55 56 57 57 56 57 57 56 57 57
57 57 57 58 57 57 56 56 55 55 56 56 56 55 55 55 55 54 54 54 54 54 53 52 49 38 39 39 39 39 38 39 52 57 57 55 55 54 54 53 55 57
58 57 57 57 56 56 56 55 55 55 54 55 54 54 53 53 53 54 54 54 54 52 52 51 44 37 39 39 38 39 39 47 52 55 55 53 53 52 51 51 54 54
57 56 56 56 56 57 56 56 55 55 55 56 55 55 54 54 55 55 55 55 53 52 52 50 46 39 38 38 38 37 43 51 52 55 54 52 51 50 51 52 53 52
57 56 55 56 55 54 54 55 55 55 56 56 56 55 55 55 55 54 54 54 53 52 53 51 47 40 38 38 38 37 43 50 51 53 52 51 49 48 49 50 52 52
57 57 55 53 53 56 55 54 54 56 55 55 55 55 55 54 55 55 54 53 54 53 54 52 48 42 37 37 37 36 40 50 50 53 52 50 49 47 46 46 46 48
56 56 55 55 55 54 54 55 54 53 54 54 53 55 55 54 54 55 54 54 53 52 54 52 49 45 39 37 37 36 38 44 50 51 51 49 49 49 47 43 43 42
MSLP
1015.48 1015.60 1015.88 1016.08 1016.36 1016.64 1017.04 1017.44 1017.76 1018.00 1018.24 1018.44 1018.60 1018.84 1019.04 1019.16 1019.16 1019.32 1019.44 1019.52 1019.60 1019.72 1019.84 1019.96 1020.12 1020.28 1020.32 1020.40 1020.56 1020.76 1021.00 1021.12 1021.12 1021.04 1021.00 1021.00 1021.04 1021.00 1021.08 1021.04 1021.00 1021.00
1015.56 1015.68 1015.88 1016.12 1016.44 1016.68 1017.00 1017.24 1017.60 1017.88 1018.24 1018.36 1018.56 1018.80 1018.96 1019.08 1019.24 1019.36 1019.48 1019.60 1019.68 1019.80 1019.88 1020.00 1020.12 1020.24 1020.36 1020.52 1020.68 1020.88 1021.08 1021.20 1021.36 1021.28 1021.28 1021.24 1021.24 1021.20 1021.20 1021.08 1021.04 1021.00
1015.48 1015.72 1015.96 1016.28 1016.56 1016.80 1017.00 1017.24 1017.56 1017.88 1018.16 1018.36 1018.56 1018.76 1018.88 1019.04 1019.24 1019.36 1019.52 1019.68 1019.80 1019.88 1019.92 1020.00 1020.12 1020.24 1020.32 1020.48 1020.64 1020.84 1021.08 1021.24 1021.44 1021.40 1021.40 1021.40 1021.36 1021.40 1021.36 1021.20 1021.12 1021.08
1015.48 1015.72 1016.00 1016.28 1016.52 1016.80 1016.96 1017.24 1017.60 1017.88 1018.16 1018.44 1018.60 1018.72 1018.84 1019.00 1019.16 1019.40 1019.56 1019.68 1019.84 1019.88 1019.96 1020.04 1020.16 1020.28 1020.40 1020.52 1020.68 1020.88 1021.08 1021.28 1021.44 1021.48 1021.52 1021.52 1021.48 1021.44 1021.48 1021.44 1021.40 1021.32
1015.64 1015.84 1016.12 1016.36 1016.60 1016.84 1017.04 1017.40 1017.72 1017.92 1018.12 1018.36 1018.56 1018.72 1018.88 1019.04 1019.24 1019.44 1019.56 1019.72 1019.84 1020.00 1020.08 1020.16 1020.24 1020.36 1020.44 1020.56 1020.68 1020.96 1021.16 1021.32 1021.44 1021.52 1021.64 1021.68 1021.60 1021.52 1021.52 1021.44 1021.52 1021.52
1015.92 1016.04 1016.28 1016.40 1016.64 1016.92 1017.28 1017.56 1017.80 1018.00 1018.28 1018.44 1018.64 1018.76 1018.88 1018.96 1019.20 1019.40 1019.64 1019.84 1019.96 1020.04 1020.08 1020.16 1020.36 1020.44 1020.48 1020.64 1020.76 1020.92 1021.16 1021.36 1021.48 1021.64 1021.76 1021.76 1021.76 1021.68 1021.60 1021.56 1021.56 1021.64
1016.24 1016.40 1016.60 1016.60 1016.80 1017.04 1017.36 1017.68 1017.92 1018.08 1018.28 1018.48 1018.64 1018.84 1018.84 1018.96 1019.12 1019.32 1019.56 1019.76 1019.96 1020.08 1020.16 1020.20 1020.32 1020.48 1020.56 1020.76 1020.88 1021.00 1021.12 1021.28 1021.52 1021.52 1021.68 1021.80 1021.72 1021.76 1021.76 1021.72 1021.68 1021.68
1016.40 1016.60 1016.80 1016.84 1017.04 1017.28 1017.52 1017.76 1017.92 1018.12 1018.24 1018.40 1018.64 1018.80 1018.76 1018.88 1018.96 1019.16 1019.40 1019.60 1019.84 1020.04 1020.20 1020.28 1020.36 1020.40 1020.56 1020.68 1020.96 1021.08 1021.20 1021.28 1021.48 1021.56 1021.68 1021.80 1021.72 1021.80 1021.80 1021.80 1021.72 1021.80
1016.88 1017.24 1017.36 1017.28 1017.32 1017.48 1017.64 1017.72 1017.80 1017.96 1018.08 1018.40 1018.64 1018.72 1018.72 1018.72 1018.84 1019.00 1019.24 1019.48 1019.72 1019.96 1020.12 1020.28 1020.36 1020.44 1020.56 1020.68 1020.88 1021.08 1021.24 1021.48 1021.60 1021.64 1021.76 1022.00 1022.04 1021.92 1021.76 1021.72 1021.80 1021.84
1017.32 1017.76 1017.76 1017.92 1017.88 1017.60 1017.76 1017.84 1017.80 1017.88 1018.12 1018.40 1018.60 1018.64 1018.68 1018.68 1018.72 1018.92 1019.16 1019.48 1019.68 1019.88 1020.08 1020.28 1020.44 1020.48 1020.60 1020.68 1020.92 1021.20 1021.56 1021.64 1021.68 1021.80 1021.92 1022.16 1022.12 1022.08 1022.04 1022.04 1022.00 1021.96
1017.44 1017.68 1017.64 1017.60 1017.72 1017.92 1017.96 1018.00 1018.24 1018.28 1018.36 1018.44 1018.60 1018.68 1018.72 1018.76 1018.84 1018.88 1019.20 1019.36 1019.80 1020.12 1020.24 1020.36 1020.52 1020.56 1020.80 1021.08 1021.32 1021.36 1021.36 1021.40 1021.56 1021.84 1022.04 1022.08 1022.04 1022.00 1022.08 1022.04 1021.96 1022.08
1017.16 1017.48 1017.36 1017.36 1017.64 1017.96 1018.20 1018.24 1018.12 1018.12 1018.32 1018.44 1018.60 1018.76 1018.76 1018.88 1018.92 1019.04 1019.08 1019.68 1019.88 1020.20 1020.40 1020.48 1020.48 1020.64 1020.84 1021.04 1021.24 1021.20 1021.28 1021.44 1021.52 1021.64 1021.88 1021.96 1021.92 1021.92 1021.92 1021.96 1022.16 1022.20
1017.68 1017.68 1017.52 1017.52 1017.88 1018.24 1018.32 1018.32 1018.28 1018.16 1018.20 1018.40 1018.56 1018.64 1018.68 1018.84 1018.96 1019.20 1019.56 1019.76 1020.00 1019.96 1020.12 1020.28 1020.40 1020.72 1020.76 1020.88 1021.04 1021.08 1021.16 1021.32 1021.44 1021.56 1021.80 1021.96 1021.92 1021.84 1021.84 1021.84 1021.92 1022.08
1017.84 1017.88 1017.92 1018.20 1018.48 1018.44 1018.40 1018.56 1018.60 1018.44 1018.40 1018.44 1018.56 1018.72 1018.88 1019.08 1019.28 1019.48 1019.72 1019.68 1019.80 1019.96 1020.04 1020.20 1020.48 1020.68 1020.84 1021.00 1021.04 1021.04 1021.20 1021.28 1021.24 1021.28 1021.52 1021.68 1021.72 1021.76 1021.76 1021.80 1021.92 1021.96
1017.92 1018.04 1018.16 1018.88 1019.16 1018.56 1018.60 1018.92 1019.12 1018.96 1018.72 1018.64 1018.76 1018.88 1019.00 1019.16 1019.28 1019.40 1019.60 1019.80 1019.92 1020.00 1020.24 1020.40 1020.48 1020.76 1020.96 1020.92 1020.92 1021.00 1021.04 1021.16 1021.16 1021.28 1021.44 1021.52 1021.56 1021.68 1021.76 1021.84 1021.96 1021.80
1017.68 1017.80 1017.92 1018.20 1018.40 1018.36 1018.40 1018.52 1018.84 1018.92 1018.76 1018.76 1018.84 1018.96 1019.00 1019.16 1019.28 1019.40 1019.44 1019.60 1019.92 1020.24 1020.40 1020.48 1020.68 1020.92 1021.00 1021.08 1020.96 1020.88 1020.92 1020.92 1020.96 1021.16 1021.32 1021.36 1021.40 1021.56 1021.72 1021.84 1021.92 1021.76
1017.84 1017.92 1018.08 1018.32 1018.40 1018.52 1018.40 1018.24 1018.32 1018.76 1018.96 1019.00 1019.08 1019.08 1019.08 1019.16 1019.24 1019.40 1019.52 1019.60 1019.76 1020.16 1020.36 1020.52 1020.80 1021.00 1021.04 1021.00 1020.92 1020.96 1020.80 1020.80 1020.80 1021.04 1021.12 1021.24 1021.32 1021.44 1021.56 1021.72 1021.72 1021.68
1018.00 1018.08 1018.20 1018.32 1018.32 1018.44 1018.52 1018.52 1018.80 1019.16 1019.24 1019.08 1019.12 1019.20 1019.16 1019.20 1019.36 1019.48 1019.56 1019.64 1019.88 1020.12 1020.32 1020.56 1020.72 1021.00 1021.04 1021.04 1020.92 1020.88 1020.84 1020.72 1020.88 1020.96 1021.04 1021.12 1021.28 1021.28 1021.40 1021.40 1021.48 1021.52
1017.92 1018.12 1018.28 1018.32 1018.40 1018.52 1018.64 1018.92 1019.04 1019.24 1019.28 1019.20 1019.16 1019.20 1019.16 1019.24 1019.36 1019.44 1019.56 1019.72 1019.88 1020.04 1020.32 1020.60 1020.68 1021.04 1021.00 1021.08 1021.04 1021.04 1020.96 1020.80 1020.80 1020.76 1020.88 1021.04 1021.08 1021.08 1021.04 1021.16 1021.32 1021.48
1017.88 1017.92 1018.24 1018.48 1018.52 1018.64 1018.84 1018.96 1019.20 1019.28 1019.36 1019.32 1019.20 1019.28 1019.36 1019.44 1019.48 1019.60 1019.72 1019.84 1020.00 1020.12 1020.32 1020.52 1020.68 1021.00 1021.12 1021.20 1021.20 1021.00 1020.92 1020.84 1020.64 1020.60 1020.60 1020.80 1021.04 1021.04 1021.04 1021.08 1021.20 1021.44
1018.16 1018.28 1018.32 1018.48 1018.48 1018.72 1019.00 1019.16 1019.24 1019.28 1019.20 1019.12 1019.08 1019.12 1019.16 1019.28 1019.48 1019.68 1019.88 1020.00 1020.08 1020.16 1020.20 1020.36 1020.68 1021.24 1021.20 1021.08 1020.88 1020.80 1020.76 1020.60 1020.52 1020.52 1020.80 1021.00 1021.24 1021.32 1021.32 1021.28 1021.24 1021.52
1018.80 1019.20 1019.12 1018.80 1018.72 1018.72 1018.76 1018.84 1018.84 1018.80 1018.88 1018.88 1018.96 1019.08 1019.20 1019.32 1019.56 1019.72 1019.88 1020.00 1020.08 1020.16 1020.24 1020.24 1020.64 1021.12 1020.96 1020.88 1020.84 1020.68 1020.72 1020.60 1020.60 1020.72 1021.04 1021.24 1021.36 1021.52 1021.56 1021.52 1021.60 1021.84
1018.80 1019.04 1019.08 1019.08 1019.04 1018.88 1018.92 1018.96 1019.04 1019.12 1019.12 1019.12 1019.20 1019.24 1019.32 1019.44 1019.52 1019.68 1019.80 1019.88 1020.00 1020.04 1020.04 1020.12 1020.24 1020.80 1020.84 1020.80 1020.64 1020.68 1020.52 1020.48 1020.52 1020.84 1021.00 1021.04 1021.28 1021.56 1021.68 1021.72 1021.92 1022.16
1018.92 1018.92 1019.32 1019.20 1019.20 1019.28 1019.20 1019.00 1018.92 1018.92 1018.92 1018.96 1019.04 1019.12 1019.24 1019.28 1019.36 1019.52 1019.68 1019.72 1019.76 1019.88 1019.84 1019.96 1020.16 1020.68 1020.84 1020.76 1020.80 1020.88 1020.84 1020.60 1020.60 1020.88 1021.28 1021.28 1021.84 1021.96 1021.92 1022.04 1022.16 1022.16
1018.84 1019.00 1019.12 1019.08 1019.00 1018.80 1018.84 1019.16 1019.04 1018.84 1018.84 1018.88 1018.84 1018.92 1018.92 1018.96 1019.16 1019.28 1019.44 1019.56 1019.52 1019.60 1019.76 1019.76 1020.08 1020.44 1020.76 1020.68 1020.84 1021.04 1020.88 1020.60 1020.68 1020.96 1021.52 1021.64 1021.88 1022.32 1022.52 1022.48 1022.60 1022.56
1018.92 1018.96 1019.00 1018.96 1019.00 1019.08 1019.12 1018.84 1018.80 1018.80 1018.84 1018.84 1018.88 1018.84 1018.76 1018.76 1018.92 1019.16 1019.28 1019.44 1019.48 1019.60 1019.68 1019.72 1019.88 1020.20 1020.52 1020.68 1020.96 1021.12 1021.00 1020.84 1020.80 1020.88 1021.44 1021.68 1021.88 1022.04 1022.44 1022.84 1022.88 1022.92
Wind_Speed
6 8 9 8 8 8 7 8 7 8 7 7 7 6 7 6 6 6 6 6 5 6 6 5 6 6 7 7 5 5 4 4 4 4 4 5 6 6 7 7 5 5
7 8 7 7 7 6 6 8 7 8 7 7 6 7 6 7 5 6 5 5 5 5 4 5 6 6 6 6 5 6 5 5 4 2 4 5 4 6 6 5 5 4
6 7 8 7 7 7 7 7 7 7 7 7 7 7 7 6 6 6 6 5 5 5 6 6 6 7 7 6 6 6 6 5 5 4 4 4 4 6 4 4 4 5
6 7 7 7 7 7 7 7 7 7 7 7 7 7 6 6 7 6 6 6 6 6 6 5 6 6 6 6 6 6 6 5 4 4 4 3 4 5 5 4 4 5
5 5 5 6 6 7 6 7 7 8 8 7 7 6 7 6 6 6 6 5 5 4 4 5 5 6 6 6 5 6 5 6 4 4 4 4 3 5 4 5 4 5
6 6 5 7 8 8 7 6 7 7 7 7 7 6 6 6 6 7 6 4 4 4 5 5 5 5 5 5 5 5 6 6 4 4 4 3 1 2 3 4 5 5
7 7 7 7 8 8 7 7 6 6 7 6 5 5 5 5 6 6 6 5 4 4 4 4 5 5 4 4 4 4 4 4 4 5 5 3 4 4 3 3 4 5
7 6 6 6 7 7 7 6 6 6 6 6 6 5 5 6 7 5 5 6 5 4 4 3 3 4 4 6 6 4 4 3 4 4 4 3 4 4 4 4 4 5
9 8 7 6 7 5 5 6 6 6 6 6 6 5 4 6 6 6 6 6 5 5 4 4 4 3 4 6 5 5 4 5 4 4 5 6 4 2 2 3 4 4
7 10 9 7 3 1 3 2 4 5 5 5 4 4 5 4 6 5 5 5 5 5 4 3 3 3 4 5 5 6 8 6 4 4 5 5 4 4 4 4 3 3
8 9 7 3 3 1 2 2 2 4 4 5 4 4 4 4 4 4 5 5 6 7 6 6 6 6 7 7 7 6 6 4 3 4 5 4 4 3 2 2 3 3
8 9 9 8 6 3 3 4 6 6 5 5 4 4 3 3 4 4 4 8 7 5 6 5 4 5 7 7 5 4 5 5 4 4 3 3 3 3 3 2 2 3
5 6 8 8 5 3 2 2 3 6 6 6 5 6 5 4 3 5 7 8 6 6 6 5 4 4 5 6 6 5 5 6 4 3 4 3 1 2 3 3 4 3
3 2 3 2 4 4 4 4 2 1 3 2 3 4 5 6 8 8 6 7 6 6 6 5 5 4 5 4 4 5 5 4 4 4 4 3 3 2 2 3 3 3
6 2 5 5 2 4 7 8 7 3 3 4 5 5 6 7 9 9 8 6 4 5 4 4 5 4 3 4 5 4 4 5 5 4 5 4 3 3 3 2 3 3
6 5 7 8 7 5 7 5 1 2 2 4 5 5 6 7 8 7 7 7 6 4 4 5 5 4 4 4 4 5 4 5 4 4 5 4 4 4 3 2 2 2
3 2 3 4 5 5 4 5 4 1 2 4 4 4 5 7 7 7 6 5 5 6 5 4 3 3 7 6 7 6 5 4 3 3 3 5 5 4 4 4 2 3
3 3 4 4 5 5 4 3 2 3 2 3 3 4 4 5 6 6 5 4 4 4 5 5 3 3 5 4 3 4 5 5 4 4 4 4 4 4 4 4 4 4
3 3 3 4 5 5 3 4 5 2 1 1 3 2 4 6 6 7 5 4 5 5 4 4 4 5 6 7 6 6 5 4 3 4 6 5 5 5 4 3 4 5
3 2 2 1 3 5 5 6 6 6 6 3 3 3 4 4 4 5 4 4 4 5 5 5 5 6 7 7 7 7 4 3 3 4 3 3 2 1 1 2 4 6
4 3 2 1 2 5 4 5 5 6 6 5 5 5 5 6 6 5 4 4 4 4 4 4 4 6 7 6 5 4 2 0 0 1 5 6 6 5 5 4 4 7
10 9 7 4 3 3 4 2 2 2 3 2 2 2 2 3 3 4 5 5 4 4 4 4 3 4 6 6 5 2 1 1 2 6 7 6 5 5 5 5 6 8
3 4 8 8 6 6 6 6 5 5 4 4 5 4 5 5 5 5 6 6 6 5 6 5 4 3 4 3 2 3 2 2 4 6 6 7 6 6 6 6 6 7
5 5 4 1 3 3 3 5 6 5 6 6 6 6 6 6 6 5 4 5 6 5 6 6 4 4 5 3 2 4 3 2 3 5 4 7 5 4 6 7 7 12
8 7 5 4 3 0 1 3 4 5 5 4 5 5 5 4 6 6 5 4 6 6 8 8 5 5 7 5 3 1 1 1 2 6 5 6 7 5 4 6 5 6
8 8 7 7 6 4 2 1 2 3 4 4 4 4 6 5 5 6 7 6 5 6 7 6 6 4 5 7 5 4 4 1 1 7 7 7 6 8 6 4 4 5
Wind_Direction
139 135 137 135 140 146 143 140 143 138 139 135 137 138 131 138 116 110 115 111 111 108 105 94 90 93 96 95 95 89 88 89 75 63 55 51 39 48 56 58 52 60
135 129 128 128 133 135 133 138 140 136 139 140 135 129 132 123 123 122 121 119 120 117 108 98 100 101 98 96 96 95 88 92 86 64 69 59 53 65 70 70 68 57
127 129 132 138 142 137 136 134 130 133 135 139 128 130 133 129 131 131 127 124 117 117 115 118 111 109 110 106 101 100 101 96 98 90 82 81 69 76 78 76 60 52
123 134 134 136 132 136 135 123 127 128 127 127 135 139 134 139 137 131 128 124 125 127 129 123 125 121 118 119 117 119 121 118 131 116 102 85 84 86 76 71 58 38
114 121 124 121 117 122 120 122 131 132 134 136 132 131 132 135 127 128 125 131 134 133 122 125 122 120 124 125 124 118 118 122 122 115 120 122 120 98 101 86 75 61
75 90 108 119 119 117 113 116 129 128 128 129 137 134 138 133 124 128 130 129 128 122 119 119 116 130 133 134 121 122 128 128 138 115 119 141 122 83 103 97 82 65
81 83 90 98 103 105 99 100 105 120 131 138 127 135 140 127 127 129 132 134 125 118 125 134 126 134 136 124 120 131 127 128 132 130 121 108 95 82 85 85 83 76
92 92 87 87 88 88 99 107 109 119 133 129 133 149 140 138 136 136 132 136 138 135 139 134 121 125 108 108 109 98 66 71 105 108 100 85 106 95 73 96 107 92
59 51 54 85 96 78 103 129 134 131 132 129 134 145 144 142 143 141 145 141 146 143 140 141 130 124 103 109 105 101 85 58 59 79 69 63 47 40 98 109 99 106
73 68 59 36 37 115 108 147 147 130 123 123 137 150 156 152 144 144 144 137 144 146 136 119 114 101 98 109 96 80 73 79 76 71 73 66 64 61 42 44 59 79
96 110 108 130 134 70 136 150 98 99 124 147 149 156 170 133 141 132 121 124 91 89 99 101 93 89 71 58 74 94 105 103 100 97 86 105 115 106 73 46 81 79
138 140 153 176 167 124 129 172 170 153 153 166 155 164 165 117 143 133 134 90 106 100 95 100 114 99 88 92 102 116 112 104 94 92 107 125 136 137 131 114 94 52
120 146 166 176 166 124 70 32 186 168 161 174 171 164 169 140 127 84 81 109 116 129 120 123 120 103 111 116 125 130 131 135 149 151 117 102 129 169 163 158 144 122
80 101 130 62 69 89 63 25 7 190 135 114 109 107 103 102 101 103 110 120 134 127 144 136 124 121 97 105 129 135 136 145 154 144 131 157 196 178 187 197 148 134
112 124 97 89 12 44 55 37 18 21 74 101 106 110 110 112 117 120 121 119 132 135 127 126 130 121 109 143 144 146 148 149 163 155 141 161 186 206 223 203 138 147
125 134 132 139 143 119 98 95 24 326 95 112 120 124 119 118 121 129 133 138 132 121 113 118 117 120 141 147 152 152 166 173 178 145 157 165 167 189 199 208 151 141
110 97 78 108 125 108 112 150 175 200 84 90 109 129 130 131 131 130 136 145 147 136 132 127 126 133 160 161 153 165 169 181 166 170 170 152 169 182 181 185 187 169
91 95 101 120 129 135 142 145 92 43 28 95 115 134 137 125 123 133 145 155 138 139 143 137 134 160 148 151 146 176 208 198 167 180 157 175 175 188 190 181 168 153
129 131 137 129 134 137 137 95 98 113 264 142 142 165 131 126 136 137 146 148 145 144 136 135 131 177 177 160 163 167 200 216 169 176 173 175 185 189 203 174 141 138
28 88 76 121 147 153 155 154 159 175 187 186 154 148 131 126 124 128 134 150 155 147 148 151 154 182 177 161 159 169 166 196 178 195 182 151 135 146 128 134 146 139
64 40 324 335 108 136 152 152 162 164 169 166 157 159 150 148 148 155 160 161 157 153 146 148 125 150 161 156 150 165 146 120 271 166 90 79 82 80 78 64 100 110
160 170 195 182 187 155 145 152 153 141 138 159 137 144 127 119 135 144 162 167 157 145 145 146 136 152 147 148 152 148 160 202 76 104 115 107 89 88 77 76 91 104
188 179 175 176 191 174 169 168 166 175 179 176 172 175 165 169 180 176 175 165 153 159 155 158 158 170 151 125 89 40 41 62 78 106 116 106 104 95 92 91 94 99
63 85 84 150 152 206 211 190 183 172 182 173 167 175 180 190 181 166 169 163 154 162 161 154 161 150 161 147 97 33 354 89 84 113 119 116 101 89 99 97 111 121
24 37 59 74 68 15 196 180 190 185 185 181 180 175 190 181 168 162 168 170 174 168 162 156 157 160 170 171 165 105 260 207 93 116 135 128 120 97 79 102 93 102
8 12 16 19 26 35 59 264 243 215 175 187 199 192 196 196 174 163 172 188 183 167 167 163 158 165 174 181 165 181 242 294 155 123 153 149 137 137 119 86 104 100